Theta_e
323 325 325 326 326 328 328 328 327 328 327 326 326 326 325 325 325 325 323 323 321 320 320 320 320 322 320 318 318 317 315 314 310 313 300 296 297 298 294 295 296 296 297
321 322 323 324 324 324 325 326 326 326 326 325 325 324 324 324 323 323 321 321 321 319 319 319 319 319 319 319 318 316 315 315 312 308 297 293 295 295 296 292 292 293 294
318 319 319 320 320 321 322 323 323 323 323 321 322 321 321 320 319 319 315 314 315 316 316 317 315 317 315 314 313 311 314 309 306 300 300 292 292 291 289 289 289 289 290
314 316 316 318 319 320 320 319 317 313 312 313 313 314 313 312 311 309 306 305 306 307 308 308 310 308 307 307 306 307 305 304 302 298 291 291 290 287 288 287 285 286 286
310 312 314 316 317 314 309 307 306 306 306 306 306 305 306 305 303 303 301 301 300 301 301 302 301 294 292 297 300 304 303 301 294 292 290 289 288 286 285 286 285 285 285
308 309 310 307 303 302 302 302 302 302 302 302 302 301 301 297 294 294 298 300 299 297 297 298 297 291 295 294 294 295 295 298 290 290 291 288 289 287 287 286 285 283 282
305 303 301 300 298 299 298 298 298 299 300 299 298 298 297 297 294 294 293 297 297 297 295 293 293 294 290 293 294 292 291 293 294 294 290 290 289 289 287 286 285 284 283
300 297 296 296 296 295 294 294 295 295 295 295 294 295 295 293 292 293 292 296 296 294 292 292 291 291 292 290 290 289 288 288 289 289 291 291 292 291 290 288 286 283 282
296 296 294 295 293 293 293 294 293 293 292 292 291 291 290 290 291 292 292 291 290 289 289 290 290 290 290 291 288 286 286 287 289 291 291 291 291 290 289 287 284 284 282
295 295 294 294 293 292 293 292 292 291 289 290 288 289 288 288 291 292 291 290 287 288 288 288 287 289 290 290 287 286 286 286 287 287 287 288 290 289 288 289 287 286 285
294 292 291 291 291 293 292 292 290 288 288 288 287 287 287 287 290 291 290 289 289 288 288 287 288 291 290 290 289 287 287 287 286 285 286 287 286 287 287 287 288 288 286
292 291 289 289 289 290 289 289 288 287 287 287 286 287 287 286 288 291 290 290 289 287 287 287 288 290 290 289 288 289 288 287 285 286 286 284 284 285 286 286 286 286 286
289 287 287 287 288 288 288 288 288 287 288 287 287 287 285 286 288 290 290 288 287 287 288 289 289 289 288 288 288 287 285 285 285 283 283 283 285 286 286 285 285 285 285
288 287 287 287 287 288 289 289 289 289 289 288 288 286 284 285 286 287 287 286 286 288 288 287 287 286 286 286 285 285 284 284 284 284 283 285 285 285 285 286 284 284 283
288 287 287 288 288 287 289 289 290 290 291 288 287 286 284 284 286 287 287 285 285 286 285 285 284 284 284 284 284 284 284 284 283 283 283 283 284 285 285 285 283 283 281
287 287 288 288 288 288 287 287 288 289 288 288 288 287 286 288 288 288 288 287 287 287 285 283 283 283 282 283 283 283 284 283 284 284 284 283 283 283 283 284 283 281 280
289 288 288 288 288 287 287 286 284 286 288 287 287 287 288 288 289 288 288 287 286 286 283 283 283 284 283 283 283 283 283 284 283 284 284 283 282 282 281 281 282 281 280
288 287 288 288 287 287 287 286 286 284 283 284 287 287 288 289 289 289 288 287 285 285 285 284 284 284 283 283 283 283 283 283 283 282 281 282 281 280 280 280 279 278 278
287 287 288 287 286 286 286 285 284 284 283 283 285 286 287 289 289 289 288 285 285 284 283 282 282 282 281 280 279 279 279 279 278 279 278 278 278 277 277 277 277 275 274
287 286 286 286 285 284 283 282 281 281 281 282 283 284 285 285 284 283 283 284 283 282 281 278 277 276 275 276 276 275 276 275 274 274 273 274 274 274 274 273 274 273 273
285 285 285 283 283 283 281 281 282 281 280 281 283 283 285 284 282 280 279 280 279 277 275 274 273 272 271 271 272 272 271 271 270 270 270 270 269 269 271 271 271 271 271
282 283 283 283 282 281 281 283 283 281 280 278 278 281 283 279 277 276 275 272 271 271 271 271 270 269 269 269 269 269 268 268 267 267 267 266 267 268 268 268 268 268 268
281 281 281 280 281 282 282 282 281 278 276 275 275 274 274 274 272 271 269 267 266 266 265 267 267 265 264 264 265 267 267 266 266 265 265 265 265 266 266 266 266 265 266
281 281 280 279 279 278 276 275 274 273 272 271 271 271 270 269 269 268 266 265 265 264 263 263 264 264 262 263 264 263 263 263 263 263 263 263 264 264 264 264 264 264 264
274 274 275 274 274 273 271 271 271 270 269 269 269 269 268 267 266 265 265 264 263 264 262 262 262 262 261 260 261 261 261 261 261 262 263 262 263 262 261 262 262 263 263
272 272 271 271 270 271 271 270 269 268 268 268 267 266 266 266 265 264 263 263 263 263 262 262 261 261 260 260 261 261 259 263 263 263 264 265 263 263 262 262 261 261 262
Wind_Speed
16 16 16 15 16 15 14 14 14 13 12 12 11 11 11 11 11 10 10 11 12 11 10 11 13 13 9 7 6 7 8 7 11 8 0 1 2 6 4 6 5 6 6
15 15 15 14 14 14 15 14 13 13 12 12 11 11 10 10 10 10 11 9 11 10 9 10 10 9 10 9 8 8 7 6 6 11 1 2 4 4 3 4 3 4 6
14 15 14 13 14 15 14 13 12 11 10 8 8 9 9 9 7 5 1 2 4 5 4 5 4 6 6 5 3 2 3 1 2 3 3 0 1 1 2 1 1 2 2
14 14 13 14 15 13 12 11 9 7 8 7 6 6 6 5 5 3 1 2 5 6 7 6 6 4 4 3 2 4 3 4 2 1 1 1 2 1 2 2 2 1 3
13 13 13 12 12 11 9 9 8 8 7 7 7 6 6 5 3 3 2 3 4 4 4 5 4 5 7 7 3 5 5 4 1 2 1 1 2 1 3 2 3 2 0
14 14 11 11 10 9 9 10 9 8 8 7 7 6 5 2 6 5 3 3 3 3 3 2 2 1 2 1 4 6 5 3 2 2 2 3 2 2 3 2 2 3 2
11 10 11 11 10 9 9 8 8 10 9 8 7 6 6 6 6 6 6 4 4 3 2 2 1 2 0 1 1 3 6 11 6 2 1 1 3 3 3 3 3 2 1
12 11 10 11 11 10 10 11 10 8 8 8 7 7 6 5 6 5 6 4 3 3 2 1 1 1 3 1 2 3 3 4 4 3 4 5 5 3 3 3 4 5 2
11 13 13 13 13 13 12 11 10 9 8 8 6 6 6 5 7 7 6 4 4 4 3 2 1 2 2 5 5 4 2 3 5 8 5 5 4 3 5 4 3 2 2
14 14 14 13 13 13 12 12 8 8 8 7 6 4 4 5 8 9 8 4 5 4 3 2 1 2 6 8 5 4 4 3 2 2 3 6 7 6 6 3 3 0 0
13 11 11 11 12 11 12 9 10 9 8 7 7 5 5 5 6 10 9 4 4 4 4 3 1 7 8 6 5 2 1 4 4 3 3 4 5 4 3 3 2 1 1
13 13 11 10 9 9 12 10 10 10 10 9 9 6 4 3 6 8 8 8 7 4 5 4 1 7 6 5 2 3 7 5 3 3 4 4 4 3 3 3 2 1 1
14 12 13 11 10 12 13 12 10 9 10 10 8 7 5 3 4 10 11 9 9 5 4 8 12 11 9 8 11 10 5 3 3 3 2 2 1 2 2 2 1 2 5
15 14 13 14 12 11 9 9 9 11 10 9 9 8 7 6 6 6 6 7 10 8 9 7 11 10 9 5 5 5 4 4 3 3 2 1 1 1 2 2 3 4 4
14 13 13 11 13 12 9 9 9 7 8 10 8 9 10 8 7 9 10 7 7 7 7 5 5 4 5 4 3 3 3 3 2 2 1 2 3 3 4 3 3 4 5
16 13 13 12 12 11 10 7 5 8 10 10 15 11 4 10 17 16 16 17 18 16 5 7 6 5 5 4 4 3 2 2 1 0 2 3 4 4 5 4 4 5 6
16 15 12 13 12 13 12 11 11 8 14 14 15 16 15 18 17 18 19 19 18 13 7 7 6 5 5 4 3 2 2 1 1 1 2 3 3 4 5 5 5 6 6
14 18 13 12 12 12 12 11 10 11 12 9 12 13 16 20 19 19 20 15 8 5 5 6 6 5 5 4 3 2 2 2 1 1 1 2 3 4 5 5 6 7 7
13 11 12 12 11 12 11 10 10 10 10 10 9 11 13 19 19 18 20 6 7 6 6 6 5 5 4 3 3 3 2 2 2 1 2 2 3 4 5 5 6 6 6
11 16 13 12 12 12 10 10 10 10 11 11 11 11 11 10 9 6 5 6 6 6 5 6 5 4 3 3 3 2 2 2 3 2 2 3 3 4 5 5 6 7 7
9 11 15 11 12 11 11 11 11 11 12 10 10 10 17 11 9 8 7 6 6 6 6 5 5 4 3 3 3 3 2 3 2 2 2 2 3 3 3 5 6 6 7
7 9 10 11 11 11 10 10 10 10 11 10 8 9 17 7 8 7 7 6 6 5 4 5 5 4 3 3 3 3 3 2 1 0 1 2 2 3 4 4 5 5 6
7 8 8 8 9 12 10 9 9 9 9 9 8 8 7 8 8 7 7 6 5 5 4 4 5 4 3 3 2 1 2 2 2 1 0 1 2 2 3 4 5 5 5
7 7 8 8 8 8 8 9 9 10 10 9 8 8 8 8 8 8 7 6 5 5 4 3 3 5 4 3 3 3 2 2 2 2 3 2 2 2 2 3 4 5 6
7 7 7 7 8 7 9 8 9 9 9 8 8 8 8 7 7 7 6 5 5 5 5 4 4 5 5 5 3 3 3 3 4 3 3 4 4 3 3 3 3 5 5
6 7 7 6 7 7 7 8 8 8 8 7 7 7 7 7 7 7 6 6 5 5 5 4 5 6 5 4 5 5 5 5 5 6 5 5 4 3 3 4 5 4 5
Wind_Direction
204 201 201 203 207 213 216 217 216 218 216 219 218 219 222 224 226 232 232 236 239 246 244 245 246 249 247 246 238 240 241 236 260 290 1 328 237 231 241 239 247 221 222
201 197 198 198 200 206 212 213 210 213 210 213 213 218 222 226 224 234 240 238 245 246 248 255 257 261 259 246 250 242 240 250 264 276 70 247 232 242 260 214 213 204 215
197 193 192 193 195 203 206 207 203 204 204 196 203 212 224 230 232 219 302 317 299 290 305 286 284 287 290 276 272 243 272 297 254 231 263 184 333 313 86 72 181 145 156
189 192 191 192 196 198 192 187 181 177 181 192 201 203 195 195 206 217 178 285 289 292 305 310 304 310 290 293 282 305 291 269 257 252 299 241 244 227 104 163 181 171 176
188 188 193 183 184 177 171 166 162 168 175 169 166 175 182 187 171 190 133 233 267 303 304 307 327 360 334 333 333 298 292 283 312 308 273 285 237 219 212 192 185 152 29
185 188 174 168 163 159 155 157 152 153 155 154 165 165 174 134 140 158 177 211 221 240 248 288 295 303 279 284 319 325 327 287 232 208 213 238 254 214 166 171 127 147 199
185 170 160 155 154 153 142 146 153 160 152 158 161 151 173 155 141 150 176 191 195 213 227 225 220 148 249 321 58 40 21 11 6 320 292 282 319 242 157 177 179 147 165
179 169 159 156 156 152 153 165 162 154 157 163 158 153 166 152 157 170 180 168 154 120 89 32 349 48 59 91 81 90 74 49 5 1 343 318 295 286 194 167 145 113 91
191 176 170 168 162 162 167 162 158 159 159 155 150 154 171 163 179 168 160 144 131 123 94 60 21 42 32 107 103 94 79 51 38 49 54 35 15 97 133 118 141 161 157
192 187 176 171 167 168 161 158 150 156 149 143 143 159 179 162 182 160 155 154 130 128 114 111 97 166 146 128 129 154 149 151 101 56 37 42 54 91 50 35 142 275 86
183 168 165 164 164 160 149 151 144 148 150 144 142 169 172 166 164 149 144 139 140 136 133 137 143 115 114 116 148 176 173 142 97 91 75 69 63 58 56 46 42 338 263
158 161 156 154 152 152 149 143 145 145 152 155 150 164 153 163 144 135 135 136 145 139 141 131 154 116 110 105 138 103 105 96 74 67 63 43 38 31 24 15 16 328 251
151 156 156 152 154 154 152 148 151 160 166 166 163 160 154 165 131 138 134 127 124 115 124 117 102 88 94 90 83 73 61 64 69 74 77 76 25 356 326 313 276 299 284
157 157 155 153 154 151 145 157 164 176 172 170 163 161 161 166 155 155 132 116 116 120 114 103 97 99 105 96 87 77 71 62 64 79 78 19 326 290 301 326 310 307 296
155 154 157 160 156 150 152 168 177 192 178 167 164 163 162 173 172 161 147 141 140 134 122 106 111 125 114 108 101 103 113 120 109 123 165 276 296 307 308 313 290 293 278
158 163 163 159 155 149 147 132 127 142 131 129 142 153 159 156 154 151 142 141 143 141 126 134 136 139 137 143 140 133 123 106 91 350 308 305 297 304 304 308 288 283 289
166 161 161 154 158 155 152 157 149 132 124 133 145 148 152 150 155 151 149 148 150 149 143 149 151 154 145 139 134 127 114 93 92 5 327 310 308 303 304 303 303 298 290
159 160 158 158 154 154 157 160 158 153 146 142 150 154 158 156 156 155 153 141 149 153 142 151 147 153 147 146 138 136 133 119 107 8 305 308 308 304 306 309 311 310 309
154 162 158 149 150 149 152 151 157 149 143 143 146 153 160 154 158 161 161 161 159 149 145 142 134 129 123 124 122 105 94 94 62 33 19 3 350 329 313 314 311 310 311
149 148 153 145 145 150 155 160 158 151 150 162 162 156 151 141 154 145 137 152 152 153 148 137 133 128 121 128 122 107 101 66 46 34 18 1 351 334 319 314 306 306 302
147 146 150 143 151 155 161 170 163 155 162 167 161 159 157 159 152 150 155 157 151 145 146 136 134 136 135 133 134 132 118 107 72 28 1 357 333 311 316 304 304 299 298
144 153 155 154 150 154 161 164 154 153 160 154 147 156 148 136 140 148 143 142 132 132 130 142 144 146 143 141 130 123 119 120 121 98 10 343 335 334 318 309 306 305 300
145 146 143 140 144 151 155 153 147 149 148 141 137 133 147 141 145 151 147 142 142 138 137 141 140 136 125 118 118 132 158 147 134 145 323 325 312 308 306 300 301 297 301
133 138 131 132 139 138 135 128 125 134 140 141 148 151 148 148 148 146 141 145 141 131 133 124 126 137 139 152 169 177 179 195 186 201 207 245 265 266 288 287 286 293 293
106 118 128 132 139 135 126 125 138 142 140 142 146 147 144 142 141 144 146 143 145 144 150 154 157 163 176 187 199 224 221 247 236 231 209 221 244 253 260 284 304 303 298
108 112 114 117 121 128 133 135 135 135 139 141 145 145 149 147 150 149 150 153 155 165 164 174 185 191 193 214 224 233 239 242 238 237 234 236 233 243 239 262 271 275 283